Location: Wells
(51.2093°N, 2.6446°W)
Time: 20:18:20
(UTC+00:00)

NANOSAT C BR1 - Visible Passes

Search period start: 16 March 2026 00:00
Search period end: 26 March 2026 00:00
Orbit: 477 x 484 km, 98.1° (Epoch: 15 March)

Date Brightness Start Highest point End Pass type
(mag) Time Alt. Az. Time Alt. Az. Time Alt. Az.
16 Mar ? 19:10:31 10° SSW 19:13:43 31° W 19:16:57 10° NNW visible
18 Mar ? 19:54:43 10° WSW 19:56:06 12° W 19:57:29 10° WNW visible
19 Mar ? 19:27:22 10° SSW 19:30:11 22° W 19:33:01 10° NW visible
20 Mar ? 19:00:58 10° S 19:04:20 40° W 19:07:45 10° NNW visible
22 Mar ? 19:44:14 10° SW 19:46:24 15° W 19:48:36 10° NW visible
23 Mar ? 19:17:18 10° SSW 19:20:25 28° W 19:23:33 10° NW visible
25 Mar ? 20:01:29 10° WSW 20:02:24 11° W 20:03:19 10° WNW visible
